Time,TemperatureF,DewpointF,PressureIn,WindDirection,WindDirectionDegrees,WindSpeedMPH,WindSpeedGustMPH,Humidity,HourlyPrecipIn,Conditions,Clouds,dailyrainin,SoftwareType,DateUTC
2013-07-24 00:00:00,63.5,54.3,29.93,West,265,0.0,0.0,72,0.00,,,0.00,Wunderground PWS Mod,2013-07-24 07:00:00,
2013-07-24 00:30:00,62.4,54.0,29.93,West,265,0.0,0.0,74,0.00,,,0.00,Wunderground PWS Mod,2013-07-24 07:30:00,
2013-07-24 01:00:00,61.6,54.0,29.93,West,265,0.0,0.0,76,0.00,,,0.00,Wunderground PWS Mod,2013-07-24 08:00:00,
2013-07-24 01:30:00,60.9,54.0,29.93,West,265,0.0,0.0,78,0.00,,,0.00,Wunderground PWS Mod,2013-07-24 08:30:00,
2013-07-24 02:00:00,60.2,53.3,29.93,West,265,0.0,0.0,78,0.00,,,0.00,Wunderground PWS Mod,2013-07-24 09:00:00,
2013-07-24 02:30:00,59.8,53.3,29.93,West,265,0.0,0.0,79,0.00,,,0.00,Wunderground PWS Mod,2013-07-24 09:30:00,
2013-07-24 03:00:00,59.2,53.0,29.93,West,265,0.0,0.0,80,0.00,,,0.00,Wunderground PWS Mod,2013-07-24 10:00:00,
2013-07-24 03:30:00,58.7,52.5,29.94,West,265,0.0,0.0,80,0.00,,,0.00,Wunderground PWS Mod,2013-07-24 10:30:00,
2013-07-24 04:00:00,58.6,52.4,29.95,West,265,0.0,0.0,80,0.00,,,0.00,Wunderground PWS Mod,2013-07-24 11:00:00,
2013-07-24 04:30:00,58.0,51.5,29.95,West,265,0.0,0.0,79,0.00,,,0.00,Wunderground PWS Mod,2013-07-24 11:30:00,
2013-07-24 05:00:00,57.8,51.3,29.95,West,265,0.0,0.0,79,0.00,,,0.00,Wunderground PWS Mod,2013-07-24 12:00:00,
2013-07-24 05:30:00,57.2,50.7,29.95,West,265,0.0,0.0,79,0.00,,,0.00,Wunderground PWS Mod,2013-07-24 12:30:00,
2013-07-24 06:00:00,57.3,51.2,29.95,West,265,0.0,0.0,80,0.00,,,0.00,Wunderground PWS Mod,2013-07-24 13:00:00,
2013-07-24 06:30:00,57.5,51.7,29.96,West,265,0.0,0.0,81,0.00,,,0.00,Wunderground PWS Mod,2013-07-24 13:30:00,
2013-07-24 07:00:00,58.1,52.3,29.96,West,265,0.0,0.0,81,0.00,,,0.00,Wunderground PWS Mod,2013-07-24 14:00:00,
2013-07-24 07:30:00,59.0,52.8,29.96,West,265,0.0,0.0,80,0.00,,,0.00,Wunderground PWS Mod,2013-07-24 14:30:00,
2013-07-24 08:00:00,61.3,53.7,29.97,West,265,0.0,0.0,76,0.00,,,0.00,Wunderground PWS Mod,2013-07-24 15:00:00,
2013-07-24 08:30:00,65.5,53.8,29.97,West,265,0.0,0.0,66,0.00,,,0.00,Wunderground PWS Mod,2013-07-24 15:30:00,
2013-07-24 09:00:00,69.4,55.4,29.97,West,265,0.0,0.0,61,0.00,,,0.00,Wunderground PWS Mod,2013-07-24 16:00:00,
2013-07-24 09:30:00,70.9,56.3,29.96,West,265,0.0,0.0,60,0.00,,,0.00,Wunderground PWS Mod,2013-07-24 16:30:00,
2013-07-24 10:00:00,73.2,56.6,29.95,SSW,212,0.0,1.0,56,0.00,,,0.00,Wunderground PWS Mod,2013-07-24 17:00:00,
2013-07-24 10:30:00,74.6,55.8,29.95,SSW,209,0.0,3.0,52,0.00,,,0.00,Wunderground PWS Mod,2013-07-24 17:30:00,
2013-07-24 11:00:00,75.8,56.4,29.95,SSW,198,0.0,2.0,51,0.00,,,0.00,Wunderground PWS Mod,2013-07-24 18:00:00,
2013-07-24 11:30:00,77.6,55.8,29.95,South,191,4.0,4.0,47,0.00,,,0.00,Wunderground PWS Mod,2013-07-24 18:30:00,
2013-07-24 12:00:00,80.9,56.9,29.96,SW,220,0.0,3.0,44,0.00,,,0.00,Wunderground PWS Mod,2013-07-24 19:00:00,
2013-07-24 12:30:00,79.8,57.2,29.95,SSW,198,1.0,3.0,46,0.00,,,0.00,Wunderground PWS Mod,2013-07-24 19:30:00,
2013-07-24 13:00:00,78.6,50.1,29.95,WNW,301,0.0,3.0,37,0.00,,,0.00,Wunderground PWS Mod,2013-07-24 20:00:00,
2013-07-24 13:30:00,81.1,51.6,29.95,WSW,254,0.0,3.0,36,0.00,,,0.00,Wunderground PWS Mod,2013-07-24 20:30:00,
2013-07-24 14:00:00,82.0,52.4,29.95,SW,232,0.0,2.0,36,0.00,,,0.00,Wunderground PWS Mod,2013-07-24 21:00:00,
2013-07-24 14:30:00,82.4,52.8,29.94,SW,232,0.0,3.0,36,0.00,,,0.00,Wunderground PWS Mod,2013-07-24 21:30:00,
2013-07-24 15:00:00,82.8,51.6,29.93,SW,227,0.0,4.0,34,0.00,,,0.00,Wunderground PWS Mod,2013-07-24 22:00:00,
2013-07-24 15:30:00,84.5,52.2,29.93,SSW,195,0.0,4.0,33,0.00,,,0.00,Wunderground PWS Mod,2013-07-24 22:30:00,
2013-07-24 16:00:00,83.8,50.8,29.92,North,3,0.0,2.0,32,0.00,,,0.00,Wunderground PWS Mod,2013-07-24 23:00:00,
2013-07-24 16:30:00,82.6,49.7,29.92,SW,236,0.0,3.0,32,0.00,,,0.00,Wunderground PWS Mod,2013-07-24 23:30:00,
2013-07-24 17:00:00,80.9,49.1,29.91,East,97,0.0,4.0,33,0.00,,,0.00,Wunderground PWS Mod,2013-07-25 00:00:00,
2013-07-24 17:30:00,80.1,50.0,29.92,NW,323,0.0,4.0,35,0.00,,,0.00,Wunderground PWS Mod,2013-07-25 00:30:00,
2013-07-24 18:00:00,79.2,50.7,29.91,NNE,23,0.0,3.0,37,0.00,,,0.00,Wunderground PWS Mod,2013-07-25 01:00:00,
2013-07-24 18:30:00,78.5,52.2,29.90,NW,315,0.0,6.0,40,0.00,,,0.00,Wunderground PWS Mod,2013-07-25 01:30:00,
2013-07-24 19:00:00,77.7,52.8,29.91,NE,52,0.0,3.0,42,0.00,,,0.00,Wunderground PWS Mod,2013-07-25 02:00:00,
2013-07-24 19:30:00,77.2,51.0,29.91,NE,51,0.0,3.0,40,0.00,,,0.00,Wunderground PWS Mod,2013-07-25 02:30:00,
2013-07-24 20:00:00,76.5,45.2,29.92,North,3,2.0,2.0,33,0.00,,,0.00,Wunderground PWS Mod,2013-07-25 03:00:00,
2013-07-24 20:30:00,74.9,48.3,29.92,NNE,21,0.0,3.0,39,0.00,,,0.00,Wunderground PWS Mod,2013-07-25 03:30:00,
2013-07-24 21:00:00,72.7,50.1,29.92,NNE,24,0.0,3.0,45,0.00,,,0.00,Wunderground PWS Mod,2013-07-25 04:00:00,
2013-07-24 21:30:00,70.1,48.9,29.93,NNE,24,0.0,3.0,47,0.00,,,0.00,Wunderground PWS Mod,2013-07-25 04:30:00,
2013-07-24 22:00:00,67.9,48.0,29.93,SSE,167,0.0,0.0,49,0.00,,,0.00,Wunderground PWS Mod,2013-07-25 05:00:00,
2013-07-24 22:30:00,66.9,48.2,29.93,SSE,167,0.0,2.0,51,0.00,,,0.00,Wunderground PWS Mod,2013-07-25 05:30:00,
2013-07-24 23:00:00,65.5,48.9,29.94,SSE,167,0.0,0.0,55,0.00,,,0.00,Wunderground PWS Mod,2013-07-25 06:00:00,
2013-07-24 23:30:00,64.2,49.6,29.94,SSE,167,0.0,0.0,59,0.00,,,0.00,Wunderground PWS Mod,2013-07-25 06:30:00,